Wind_Speed
17 17 17 16 16 16 16 17 17 18 17 18 19 19 19 18 17 17 17 17 17 17 17 17 17 17 17 17 17 17 17 17 17 17 17 17 17 18 18 18 17 18 17
18 18 18 18 17 17 17 18 18 18 18 19 19 20 20 20 20 19 19 19 19 19 19 18 18 17 18 18 18 19 19 19 19 19 19 19 19 18 19 19 19 19 18
19 19 19 19 19 19 19 19 19 20 19 20 20 20 21 21 22 22 22 20 20 20 20 20 20 20 19 19 20 20 20 20 20 21 21 21 20 20 20 20 20 20 19
20 20 20 21 20 20 20 20 21 21 21 21 22 22 22 22 23 23 23 23 23 22 22 22 22 22 22 21 21 21 21 21 22 22 22 22 21 21 21 20 20 19 19
20 20 21 21 21 21 21 21 22 22 23 23 23 23 23 23 23 23 24 24 24 24 24 24 24 24 25 24 23 23 23 22 23 23 23 22 22 22 21 21 21 21 20
21 21 21 21 21 21 21 22 22 22 23 23 23 24 24 25 25 24 25 25 25 26 26 25 26 26 27 27 26 26 26 25 25 25 25 24 24 23 23 23 23 23 22
22 22 22 22 22 22 21 21 22 22 23 23 24 24 24 25 25 25 26 26 26 27 27 27 27 27 27 27 28 28 28 27 27 27 26 26 26 26 25 25 25 25 25
22 22 22 22 23 23 22 22 22 22 22 23 24 24 24 24 25 26 26 26 27 27 27 28 28 28 28 28 29 29 29 29 28 28 28 28 28 28 27 27 26 26 25
22 22 22 22 23 24 24 24 23 23 23 23 24 23 24 24 25 26 26 27 27 27 28 28 27 27 28 28 29 30 29 29 29 29 30 30 30 29 29 28 28 27 26
24 24 23 24 24 25 25 26 26 25 25 24 24 25 25 25 25 26 27 27 28 28 28 28 29 29 29 28 29 30 30 30 30 30 31 31 31 30 30 30 29 29 29
24 25 25 25 25 26 26 26 26 26 26 26 26 26 26 26 26 27 28 28 28 28 29 29 29 29 29 29 30 30 31 31 31 31 31 31 31 31 31 31 30 30 29
25 25 26 26 27 28 28 28 28 28 27 26 26 26 27 27 27 28 28 28 28 28 28 29 31 31 30 30 30 30 30 31 31 31 32 32 31 31 31 32 32 31 31
25 26 27 28 28 29 29 29 30 29 28 28 28 28 29 29 29 29 28 28 28 28 29 30 30 31 31 30 30 29 30 30 31 31 32 32 32 32 32 32 32 32 32
26 26 27 29 29 30 29 30 30 30 30 30 30 30 31 31 31 31 30 29 29 29 29 30 30 30 31 30 31 31 31 31 31 31 32 32 32 33 34 34 34 34 34
28 29 29 30 30 30 31 31 31 31 31 31 32 32 32 33 33 33 32 32 31 31 30 30 30 30 31 31 31 31 32 32 32 32 33 33 33 33 33 34 35 35 35
30 30 30 30 31 31 32 32 33 33 33 33 33 33 33 33 33 34 33 33 33 32 32 31 31 31 31 32 32 32 32 32 32 32 32 33 34 34 34 35 36 36 36
29 30 31 31 32 33 33 33 34 34 34 34 34 34 33 33 34 34 34 33 33 33 33 33 33 33 33 33 33 33 33 33 33 33 33 34 34 35 35 36 36 37 37
31 31 31 31 32 32 32 33 33 33 34 34 34 33 33 33 33 33 33 34 34 34 34 34 34 34 35 35 35 34 34 34 34 35 35 35 35 35 35 35 36 36 37
31 31 31 31 31 31 31 32 32 33 33 33 33 33 33 33 33 33 33 34 34 35 35 35 35 35 35 35 36 36 36 36 36 36 36 36 36 36 36 36 36 37 38
32 31 31 31 31 31 31 32 32 32 32 32 32 33 33 34 34 34 34 35 35 35 35 35 35 35 35 35 35 36 36 36 36 37 37 37 37 38 38 38 38 38 38
32 32 32 32 32 32 32 32 32 32 32 32 32 33 34 34 34 35 35 35 36 36 36 36 36 36 36 36 36 36 36 36 36 36 37 38 38 38 38 38 38 38 38
32 32 32 32 32 32 33 33 32 32 32 33 33 34 34 35 34 35 35 36 36 36 36 36 36 37 37 36 36 36 36 36 36 36 37 37 38 38 38 38 38 37 38
32 32 32 33 33 33 33 32 32 32 32 33 33 33 34 34 34 35 35 36 36 36 36 36 37 37 37 37 37 37 37 37 37 37 37 38 38 38 38 38 38 39 39
32 32 32 33 33 33 33 32 32 32 32 32 33 34 34 35 35 36 36 36 36 36 36 36 37 37 37 38 38 38 38 39 39 39 38 38 39 39 40 40 40 39 40
32 33 33 33 33 33 32 32 32 32 33 33 33 34 35 35 36 36 36 36 36 36 36 37 37 37 37 38 38 38 39 40 40 41 41 41 41 40 40 40 40 40 40
33 33 33 33 33 32 33 33 33 33 33 33 33 34 34 35 35 35 35 36 36 36 37 37 37 37 38 38 38 39 39 40 40 41 41 41 41 40 40 40 40 41 41
Wind_Direction
282 282 281 281 280 276 274 275 273 270 268 266 264 263 264 266 263 262 262 260 261 262 265 265 267 269 269 267 268 268 268 269 271 270 273 273 275 275 275 275 278 279 278
280 281 282 283 280 277 275 273 272 271 271 269 268 266 263 264 263 263 262 262 262 264 264 265 267 270 271 270 269 269 269 269 270 271 271 272 273 275 277 276 275 277 275
279 279 279 281 282 279 277 275 273 272 270 270 267 264 263 263 263 265 264 263 263 264 264 265 266 267 270 271 270 270 270 269 269 270 269 270 271 274 275 276 274 274 275
280 279 279 279 278 278 277 278 278 275 271 270 266 266 264 263 263 266 265 262 262 262 263 264 265 267 269 270 270 271 271 269 268 269 269 270 270 271 271 273 274 274 276
280 279 279 278 277 276 277 278 279 276 273 272 270 267 266 265 266 268 266 265 263 261 263 263 265 267 269 270 269 270 270 269 269 270 270 270 271 271 273 274 276 276 276
278 278 279 279 278 277 278 279 279 276 274 272 271 269 269 268 267 267 267 267 265 265 266 265 266 267 268 268 269 269 269 269 269 270 269 269 270 271 273 274 275 275 275
278 277 278 279 279 278 279 280 279 278 276 275 272 273 270 269 269 269 268 267 268 267 267 267 267 268 267 266 267 268 268 268 268 268 268 268 268 268 269 270 272 274 274
280 279 279 278 278 278 278 278 277 277 278 279 277 273 271 272 271 270 271 270 269 269 268 268 267 267 267 266 267 268 268 267 267 267 267 267 267 267 268 269 270 271 271
282 280 280 279 277 278 279 278 278 277 278 278 278 276 273 274 274 272 272 273 272 272 271 269 268 267 266 267 268 269 269 268 266 266 267 267 266 267 267 267 268 269 270
281 280 279 279 279 280 280 279 278 278 279 278 277 277 276 276 275 274 274 274 274 274 273 270 269 269 267 268 269 270 271 270 268 266 265 265 266 266 267 267 267 268 269
280 280 278 278 278 278 279 279 278 278 277 276 276 276 276 276 276 276 275 275 275 274 274 272 272 271 270 269 270 270 271 271 270 268 265 264 265 266 266 267 267 267 268
281 281 280 278 278 278 278 278 279 278 277 275 274 274 275 275 276 277 277 276 275 274 273 274 274 273 271 270 271 270 270 270 270 269 267 267 266 266 266 265 265 266 268
282 282 281 280 279 278 278 279 279 278 276 276 275 275 276 276 277 278 277 275 275 275 275 275 276 274 273 271 270 270 270 270 269 269 268 268 268 266 265 265 264 266 267
283 283 283 282 281 280 279 279 278 277 276 276 277 277 277 276 277 276 276 275 274 275 275 276 275 273 273 273 271 271 271 270 270 269 269 268 268 267 267 266 266 266 267
284 284 283 282 281 280 280 279 278 278 278 278 278 278 278 277 275 275 274 275 275 274 274 273 273 273 272 273 272 272 272 271 270 270 269 268 268 268 268 268 267 267 266
285 285 285 284 282 281 280 280 279 279 279 279 278 278 278 277 276 275 274 274 274 272 272 273 272 273 274 274 272 272 271 271 271 271 270 268 268 268 268 268 267 266 266
286 287 286 286 285 284 283 281 281 280 279 279 278 277 277 277 276 275 273 273 274 273 273 273 272 272 273 274 272 270 270 270 270 271 270 270 269 268 268 267 267 266 265
287 287 287 286 286 285 284 283 281 281 280 279 278 277 277 277 275 274 274 274 274 274 274 274 274 274 273 272 272 271 270 270 269 270 270 270 270 269 268 268 267 267 267
288 288 288 287 286 286 285 284 283 282 281 279 277 277 276 275 274 274 274 274 275 275 274 274 274 274 273 272 272 272 271 270 269 269 269 269 269 269 269 268 268 268 269
289 288 288 287 287 286 286 285 285 283 281 279 278 277 276 276 275 274 275 275 275 276 276 275 274 274 273 272 272 271 271 271 271 269 268 268 269 270 270 270 270 270 269
292 290 288 288 287 287 286 285 285 283 281 279 278 278 277 277 276 276 277 277 277 277 276 275 274 273 273 272 272 271 271 271 271 270 269 269 269 270 270 271 271 270 269
292 290 288 288 288 287 286 286 285 284 282 281 280 279 279 279 278 278 279 279 278 278 277 276 274 272 272 273 273 272 271 271 271 269 269 268 268 269 270 270 271 271 270
291 291 290 289 289 288 287 286 286 285 284 283 281 281 280 280 279 279 280 280 279 279 278 277 274 272 271 272 272 271 271 271 270 270 269 268 268 268 268 269 269 270 270
291 291 291 290 289 288 287 286 286 285 285 284 283 282 281 280 280 280 280 279 279 279 278 277 275 273 272 272 272 272 272 272 271 270 269 269 269 269 268 268 269 269 269
292 291 290 290 289 288 287 286 285 285 284 284 284 283 283 282 281 281 280 280 279 279 278 277 275 274 273 273 273 272 273 273 272 272 271 270 270 269 268 268 268 268 269
293 293 291 290 289 288 287 286 285 285 284 285 285 285 284 284 283 282 281 280 280 279 279 278 276 275 274 274 274 274 274 274 274 273 273 272 271 270 269 268 268 268 268
Height
5787 5787 5786 5785 5785 5784 5784 5783 5783 5782 5782 5782 5782 5782 5783 5784 5784 5785 5785 5786 5787 5787 5788 5788 5788 5789 5789 5789 5789 5789 5789 5790 5790 5790 5790 5789 5789 5789 5788 5787 5787 5786 5784
5783 5782 5782 5781 5780 5780 5779 5779 5778 5778 5777 5777 5777 5777 5778 5778 5779 5780 5780 5781 5781 5782 5782 5783 5783 5784 5784 5784 5784 5784 5784 5784 5785 5784 5784 5784 5784 5783 5783 5782 5782 5781 5780
5778 5777 5777 5776 5775 5774 5774 5773 5773 5772 5772 5772 5772 5772 5772 5773 5773 5774 5774 5775 5775 5776 5777 5777 5778 5778 5778 5778 5778 5778 5778 5778 5779 5779 5779 5778 5778 5778 5778 5777 5777 5776 5775
5773 5772 5771 5771 5770 5769 5769 5768 5767 5767 5766 5766 5766 5766 5766 5766 5767 5767 5768 5769 5769 5770 5770 5771 5771 5772 5772 5772 5772 5772 5772 5772 5772 5772 5772 5772 5772 5772 5772 5771 5771 5770 5770
5767 5766 5766 5765 5764 5764 5763 5762 5762 5761 5761 5760 5760 5760 5760 5760 5761 5761 5761 5762 5762 5762 5763 5764 5764 5765 5765 5765 5765 5766 5766 5766 5766 5766 5766 5766 5766 5765 5765 5765 5765 5764 5764
5761 5760 5760 5759 5758 5758 5757 5756 5755 5755 5754 5754 5754 5753 5754 5754 5754 5754 5754 5755 5755 5755 5756 5756 5756 5757 5757 5758 5758 5758 5758 5759 5759 5759 5759 5759 5759 5759 5759 5759 5758 5758 5758
5755 5754 5753 5752 5752 5751 5750 5750 5749 5748 5748 5747 5747 5746 5746 5747 5747 5747 5747 5747 5747 5748 5748 5748 5748 5749 5749 5749 5750 5750 5750 5750 5751 5751 5751 5751 5752 5752 5752 5751 5751 5751 5752
5748 5747 5746 5746 5745 5744 5744 5743 5742 5742 5741 5741 5740 5739 5739 5739 5739 5739 5739 5739 5740 5740 5740 5740 5740 5740 5741 5741 5741 5741 5741 5742 5742 5742 5743 5743 5743 5743 5744 5744 5744 5744 5744
5741 5740 5740 5739 5738 5737 5736 5736 5736 5735 5734 5734 5733 5732 5732 5732 5732 5732 5732 5732 5732 5731 5731 5732 5732 5732 5732 5732 5733 5733 5733 5733 5733 5733 5733 5734 5734 5734 5735 5735 5736 5736 5736
5734 5733 5732 5731 5731 5730 5729 5728 5728 5727 5727 5726 5726 5726 5725 5725 5724 5724 5723 5724 5723 5723 5723 5722 5723 5723 5723 5723 5723 5723 5723 5723 5723 5723 5724 5724 5725 5725 5726 5726 5727 5727 5727
5727 5726 5724 5724 5723 5722 5721 5720 5720 5720 5719 5719 5718 5718 5717 5717 5716 5716 5715 5715 5715 5714 5714 5713 5714 5714 5713 5714 5714 5714 5714 5714 5713 5714 5714 5714 5715 5716 5716 5717 5718 5718 5719
5719 5718 5717 5716 5715 5714 5713 5713 5712 5711 5711 5710 5710 5709 5709 5708 5708 5707 5706 5706 5706 5705 5705 5705 5705 5704 5704 5704 5704 5704 5704 5704 5704 5704 5704 5705 5705 5706 5707 5707 5708 5708 5709
5711 5710 5709 5708 5707 5705 5705 5704 5703 5702 5702 5702 5701 5700 5700 5699 5699 5698 5697 5697 5697 5696 5696 5696 5695 5694 5694 5694 5694 5694 5694 5694 5694 5694 5694 5695 5696 5696 5696 5697 5697 5698 5699
5703 5702 5701 5699 5698 5697 5696 5695 5694 5693 5692 5692 5692 5691 5691 5690 5689 5688 5688 5688 5687 5687 5686 5686 5685 5685 5685 5685 5684 5684 5684 5684 5684 5684 5684 5684 5685 5686 5686 5686 5687 5688 5688
5695 5693 5692 5690 5689 5687 5686 5685 5684 5684 5683 5682 5682 5681 5680 5680 5679 5678 5678 5677 5677 5677 5676 5676 5676 5675 5675 5675 5674 5674 5673 5673 5673 5673 5673 5674 5674 5675 5675 5676 5676 5677 5678
5686 5684 5683 5681 5679 5678 5676 5675 5674 5673 5672 5671 5671 5670 5670 5669 5668 5668 5667 5667 5666 5666 5666 5666 5665 5665 5665 5664 5664 5663 5663 5663 5663 5663 5663 5663 5663 5664 5664 5665 5665 5666 5666
5677 5675 5673 5671 5669 5667 5666 5664 5663 5662 5660 5660 5659 5659 5658 5658 5657 5656 5656 5656 5656 5656 5655 5655 5655 5654 5654 5653 5653 5652 5652 5652 5652 5652 5652 5652 5652 5653 5653 5653 5653 5654 5654
5667 5665 5663 5661 5659 5657 5655 5653 5652 5650 5650 5648 5648 5647 5647 5647 5646 5645 5645 5645 5645 5644 5644 5644 5643 5643 5642 5642 5641 5641 5641 5641 5641 5641 5641 5641 5641 5641 5641 5641 5641 5642 5642
5657 5655 5653 5651 5649 5647 5645 5643 5641 5639 5638 5637 5637 5636 5636 5635 5635 5634 5634 5634 5633 5633 5632 5632 5631 5631 5630 5630 5629 5629 5629 5629 5629 5629 5629 5629 5629 5629 5629 5629 5629 5629 5630
5647 5645 5643 5641 5639 5637 5634 5632 5630 5629 5627 5626 5626 5625 5625 5624 5624 5623 5623 5622 5622 5621 5620 5620 5619 5618 5618 5618 5617 5617 5616 5616 5616 5616 5616 5616 5616 5616 5616 5616 5616 5617 5617
5637 5635 5633 5631 5628 5626 5624 5622 5620 5618 5617 5616 5615 5614 5613 5613 5612 5612 5611 5610 5610 5609 5608 5607 5606 5606 5605 5605 5604 5604 5604 5604 5603 5603 5603 5603 5604 5604 5604 5604 5604 5604 5604
5627 5625 5623 5620 5618 5616 5614 5612 5610 5608 5607 5605 5604 5603 5602 5601 5600 5600 5599 5598 5597 5596 5596 5595 5594 5593 5593 5592 5592 5592 5592 5591 5591 5591 5590 5590 5591 5591 5591 5591 5591 5591 5591
5617 5615 5612 5610 5608 5606 5603 5601 5599 5598 5596 5594 5593 5592 5591 5590 5589 5588 5587 5586 5585 5584 5583 5582 5581 5581 5580 5580 5580 5579 5579 5579 5578 5578 5577 5577 5577 5577 5577 5577 5577 5577 5578
5607 5604 5602 5600 5597 5595 5593 5591 5589 5587 5585 5584 5582 5580 5579 5578 5577 5576 5575 5574 5572 5571 5570 5569 5569 5568 5568 5567 5567 5566 5566 5565 5565 5564 5564 5564 5564 5564 5564 5564 5564 5564 5564
5596 5594 5591 5589 5586 5584 5582 5580 5578 5576 5574 5573 5571 5569 5568 5566 5565 5564 5562 5561 5560 5559 5558 5557 5556 5555 5555 5554 5554 5553 5553 5552 5551 5551 5550 5550 5550 5550 5550 5550 5550 5550 5550
5585 5583 5580 5578 5576 5573 5571 5569 5567 5565 5563 5562 5560 5558 5556 5554 5553 5551 5550 5549 5548 5546 5545 5544 5543 5542 5542 5541 5541 5540 5539 5538 5538 5537 5536 5536 5536 5536 5536 5536 5536 5536 5537